DW8571 Weather Reports


Display with metric or nautical units.
time (UTC)temp
F
wind
direction
speed
MPH
gust
MPH
rain 1hr
in
rain 24hr
in
rain mn
in
humidity
%
barometer
mb
20181113164509 36 24 5.0 13.0 0.00 0.38 0.07 92 1025.2
20181113163006 36 12 4.0 11.0 0.00 0.38 0.07 93 1025.2
20181113161509 36 23 8.0 14.0 0.00 0.38 0.07 92 1024.8
20181113160003 36 29 5.0 15.0 0.00 0.53 0.07 93 1025.1
20181113154702 36 24 8.0 13.0 0.00 0.53 0.07 93 1024.7
20181113153135 37 13 7.0 14.0 0.00 0.53 0.07 94 1024.5
20181113151719 37 11 7.0 12.0 0.00 0.53 0.07 94 1024.8
20181113150113 37 22 7.0 14.0 0.00 0.53 0.07 94 1024.2
20181113144632 37 55 8.0 14.0 0.00 0.75 0.07 95 1024.0
20181113143217 37 30 6.0 10.0 0.00 0.75 0.07 95 1024.0
20181113141640 37 44 9.0 15.0 0.00 0.75 0.07 94 1023.7
20181113140203 38 33 7.0 14.0 0.00 0.75 0.07 94 1023.5
20181113134619 38 26 9.0 15.0 0.00 0.96 0.07 94 1023.2
20181113133101 38 42 6.0 12.0 0.00 0.96 0.07 94 1023.1
20181113131606 39 47 5.0 11.0 0.00 0.96 0.07 93 1022.7
20181113130045 39 22 5.0 11.0 0.00 1.09 0.07 93 1022.4
20181113124544 39 32 8.0 13.0 0.00 1.09 0.07 94 1022.2
20181113123041 39 17 4.0 11.0 0.00 1.09 0.07 94 1022.3
20181113121536 39 360 4.0 7.0 0.00 1.09 0.07 94 1021.7
20181113120105 39 28 7.0 15.0 0.00 1.21 0.07 94 1021.7
20181113114545 39 28 6.0 15.0 0.00 1.21 0.07 94 1021.5
20181113113039 39 64 6.0 12.0 0.00 1.21 0.07 94 1021.1
20181113111526 39 40 7.0 12.0 0.00 1.21 0.07 94 1021.3
20181113110030 40 5 6.0 10.0 0.01 1.32 0.07 94 1020.8
20181113104522 39 51 7.0 10.0 0.01 1.32 0.07 95 1020.3
20181113103027 39 22 7.0 12.0 0.01 1.32 0.07 95 1020.2
20181113101545 39 18 6.0 15.0 0.01 1.32 0.07 95 1020.1
20181113100028 39 29 7.0 17.0 0.01 1.39 0.06 96 1019.4
20181113094544 39 31 7.0 13.0 0.01 1.39 0.06 96 1019.8
20181113093105 39 28 7.0 11.0 0.01 1.39 0.06 96 1020.0
20181113091536 39 24 7.0 12.0 0.02 1.39 0.06 96 1019.8
20181113090028 39 22 8.0 14.0 0.01 1.52 0.05 96 1019.9
20181113084514 40 18 7.0 14.0 0.01 1.52 0.05 96 1019.7
20181113083010 40 23 6.0 15.0 0.02 1.52 0.05 96 1019.9
20181113081533 40 29 6.0 15.0 0.01 1.51 0.04 96 1019.3
20181113080004 41 355 7.0 13.0 0.02 1.61 0.04 95 1018.9
20181113074628 41 326 9.0 15.0 0.02 1.61 0.04 95 1018.6
20181113073139 41 23 6.0 16.0 0.02 1.60 0.03 96 1018.3
20181113071726 41 28 9.0 15.0 0.02 1.60 0.03 95 1017.8
20181113070111 41 10 8.0 14.0 0.02 1.59 0.02 96 1018.1
20181113064603 42 15 7.0 13.0 0.02 1.59 0.02 96 1017.8
20181113063117 42 355 6.0 11.0 0.01 1.58 0.01 96 1017.6
20181113061713 43 360 8.0 15.0 0.02 1.58 0.01 96 1017.4
20181113060102 43 24 6.0 15.0 0.01 1.57 0.00 96 1017.1
20181113054700 44 72 6.0 11.0 0.02 1.57 1.57 97 1017.0
20181113053127 44 45 5.0 12.0 0.02 1.57 1.57 97 1017.1
20181113051615 44 360 6.0 10.0 0.02 1.56 1.56 97 1017.2
20181113050038 45 52 4.0 12.0 0.03 1.56 1.56 97 1016.9
20181113044612 46 55 6.0 11.0 0.02 1.55 1.55 97 1017.1
20181113043051 46 19 6.0 14.0 0.03 1.55 1.55 97 1017.2
20181113041538 47 23 5.0 11.0 0.02 1.54 1.54 97 1017.3
20181113040128 48 32 5.0 8.0 0.01 1.53 1.53 97 1017.0
20181113034541 49 50 2.0 7.0 0.02 1.53 1.53 97 1016.8
20181113033038 49 22 3.0 8.0 0.01 1.52 1.52 97 1016.9
20181113031628 49 56 2.0 6.0 0.02 1.52 1.52 97 1016.4
20181113030036 49 5 3.0 7.0 0.02 1.52 1.52 97 1016.2
20181113024552 49 48 3.0 9.0 0.01 1.51 1.51 97 1016.0
20181113023031 49 52 5.0 7.0 0.00 1.50 1.50 97 1015.9
20181113021604 50 38 3.0 8.0 0.00 1.50 1.50 97 1015.6
20181113020043 50 49 5.0 9.0 0.00 1.50 1.50 97 1015.4
20181113014528 50 59 5.0 12.0 0.00 1.50 1.50 97 1015.3
20181113013039 50 77 3.0 8.0 0.00 1.50 1.50 97 1015.3
20181113011531 50 56 3.0 9.0 0.00 1.50 1.50 97 1015.3
20181113010037 50 86 4.0 11.0 0.00 1.50 1.50 97 1014.9
20181113004556 50 70 2.0 8.0 0.00 1.50 1.50 97 1015.3
20181113003038 50 57 8.0 12.0 0.00 1.50 1.50 97 1015.2
20181113001548 50 68 5.0 9.0 0.00 1.50 1.50 97 1015.4
20181113000034 50 31 2.0 9.0 0.00 1.50 1.50 97 1015.5
20181112234616 51 21 4.0 8.0 0.00 1.50 1.50 97 1015.1
20181112233037 51 67 4.0 8.0 0.01 1.50 1.50 97 1015.0
20181112231539 51 53 1.0 8.0 0.01 1.50 1.50 97 1014.5
20181112230023 51 59 3.0 7.0 0.01 1.50 1.50 97 1014.3
20181112224533 51 52 5.0 9.0 0.02 1.50 1.50 97 1014.2
20181112223032 52 37 5.0 9.0 0.01 1.49 1.49 97 1013.9
20181112221545 52 50 2.0 4.0 0.02 1.49 1.49 97 1014.5
20181112220019 52 52 3.0 5.0 0.02 1.49 1.49 97 1014.6
20181112214522 52 58 1.0 4.0 0.01 1.48 1.48 97 1014.5
20181112213019 52 59 2.0 5.0 0.01 1.48 1.48 97 1014.3
20181112211518 52 63 2.0 4.0 0.00 1.47 1.47 97 1014.2
20181112210028 53 49 0.0 4.0 0.00 1.47 1.47 97 1014.0
20181112204553 53 61 1.0 5.0 0.00 1.47 1.47 97 1013.9
20181112203017 52 44 1.0 6.0 0.00 1.47 1.47 97 1013.8
20181112201522 52 90 0.0 5.0 0.00 1.47 1.47 98 1013.9
20181112200010 52 78 1.0 4.0 0.00 1.47 1.47 98 1013.6
20181112194514 52 126 1.0 5.0 0.00 1.47 1.47 98 1013.4
20181112193039 52 144 4.0 7.0 0.00 1.47 1.47 98 1013.6
20181112191511 52 132 4.0 8.0 0.01 1.47 1.47 98 1013.2
20181112190008 52 113 2.0 9.0 0.02 1.47 1.47 98 1013.3
20181112184502 51 155 3.0 12.0 0.03 1.47 1.47 98 1013.6
20181112183159 51 164 7.0 11.0 0.05 1.47 1.47 98 1014.0
20181112181642 51 129 6.0 9.0 0.06 1.46 1.46 98 1014.0
20181112180127 50 94 2.0 10.0 0.07 1.45 1.45 98 1015.1
20181112174711 50 144 6.0 10.0 0.09 1.44 1.44 98 1014.6
20181112173137 50 118 6.0 16.0 0.10 1.42 1.42 98 1014.8
20181112171640 50 117 7.0 12.0 0.11 1.40 1.40 98 1015.3
20181112170113 50 114 2.0 8.0 0.12 1.38 1.38 98 1016.7